Tallahassee, FL

11:34 AM EDT on April 24, 2018 (GMT -0400)
Tallahassee Regional

Weather History for KTLH - January, 2014

Change the Weather History Date:

Thursday, January 23, 2014

  Actual Average Record
Temperature  
Mean Temperature 42 °F 51 °F  
Max Temperature 56 °F 64 °F 80 °F (1929)
Min Temperature 28 °F 39 °F 20 °F (2011)
Degree Days  
Heating Degree Days 23    
Month to date heating degree days 365  
Since 1 July heating degree days 764  
Cooling Degree Days 0    
Month to date cooling degree days 2  
Year to date cooling degree days 2  
Moisture  
Dew Point 19 °F    
Average Humidity 50    
Maximum Humidity 78    
Minimum Humidity 22    
Precipitation  
Precipitation 0.00 in 0.15 in 2.77 in (2015)
Month to date precipitation 3.04 3.10  
Year to date precipitation 3.04 3.10  
Sea Level Pressure  
Sea Level Pressure 30.35 in    
Wind  
Wind Speed 3 mph (North)    
Max Wind Speed 14 mph    
Max Gust Speed 30 mph    
Visibility 10 miles    
Events      
T = Trace of Precipitation, MM = Missing Value Source: NWS Daily Summary

Daily Weather History Graph

Daily Weather History Graph

Search for Another Location

Airport or City:

Astronomy

Jan. 23, 2014 Rise Set
Actual Time 7:32 AM EST 6:06 PM EST
Civil Twilight 7:07 AM EST 6:31 PM EST
Nautical Twilight 6:37 AM EST 7:00 PM EST
Astronomical Twilight 6:09 AM EST 7:29 PM EST
Moon 12:06 AM EST (1/23) 11:39 AM EST (1/23)
Length of Visible Light 11h 24m
Length of Day
10h 33m
Waning Gibbous, 55% of the Moon is Illuminated
Jan 23
Waning Gibbous
Jan 24
Last Quarter
Jan 30
New
Feb 6
First Quarter
Feb 14
Full

Hourly Weather History & Observations

Time (EST) Temp. Windchill Dew Point Humidity Pressure Visibility Wind Dir Wind Speed Gust Speed Precip Events Conditions
12:53 AM 28.0 °F - 21.0 °F 75% 30.22 in 10.0 mi Calm Calm - N/A   Clear
1:53 AM 30.0 °F - 23.0 °F 75% 30.22 in 10.0 mi Calm Calm - N/A   Clear
2:53 AM 30.0 °F - 23.0 °F 75% 30.25 in 10.0 mi Calm Calm - N/A   Clear
3:53 AM 28.9 °F - 23.0 °F 78% 30.25 in 10.0 mi Calm Calm - N/A   Clear
4:53 AM 30.9 °F - 23.0 °F 72% 30.28 in 10.0 mi Calm Calm - N/A   Clear
5:53 AM 28.9 °F - 23.0 °F 78% 30.30 in 10.0 mi Calm Calm - N/A   Mostly Cloudy
6:53 AM 30.0 °F - 23.0 °F 75% 30.32 in 10.0 mi Calm Calm - N/A   Mostly Cloudy
7:53 AM 30.9 °F - 23.0 °F 72% 30.34 in 10.0 mi Calm Calm - N/A   Mostly Cloudy
8:53 AM 37.9 °F - 21.9 °F 53% 30.35 in 10.0 mi Calm Calm - N/A   Mostly Cloudy
9:53 AM 43.0 °F 38.2 °F 12.9 °F 30% 30.38 in 10.0 mi North 8.1 mph - N/A   Mostly Cloudy
10:53 AM 44.1 °F 39.0 °F 14.0 °F 30% 30.41 in 10.0 mi North 9.2 mph - N/A   Mostly Cloudy
11:53 AM 46.0 °F 41.9 °F 12.0 °F 25% 30.40 in 10.0 mi NE 8.1 mph - N/A   Mostly Cloudy
12:53 PM 48.9 °F - 14.0 °F 25% 30.38 in 10.0 mi NE 3.5 mph - N/A   Mostly Cloudy
1:53 PM 51.1 °F - 14.0 °F 23% 30.34 in 10.0 mi Calm Calm - N/A   Mostly Cloudy
2:53 PM 54.0 °F - 16.0 °F 22% 30.33 in 10.0 mi North 9.2 mph - N/A   Mostly Cloudy
3:53 PM 54.0 °F - 16.0 °F 22% 30.33 in 10.0 mi North 9.2 mph - N/A   Mostly Cloudy
4:53 PM 52.0 °F - 16.0 °F 24% 30.36 in 10.0 mi North 9.2 mph - N/A   Mostly Cloudy
5:53 PM 50.0 °F - 17.1 °F 27% 30.38 in 10.0 mi North 4.6 mph - N/A   Mostly Cloudy
6:53 PM 46.9 °F - 19.0 °F 33% 30.39 in 10.0 mi Calm Calm - N/A   Scattered Clouds
7:53 PM 37.9 °F - 23.0 °F 55% 30.40 in 10.0 mi Calm Calm - N/A   Clear
8:53 PM 36.0 °F - 23.0 °F 59% 30.42 in 10.0 mi Calm Calm - N/A   Clear
9:53 PM 33.1 °F - 21.9 °F 64% 30.43 in 10.0 mi Calm Calm - N/A   Clear
10:53 PM 32.0 °F - 21.9 °F 66% 30.44 in 10.0 mi Calm Calm - N/A   Clear
11:53 PM 33.1 °F - 24.1 °F 70% 30.45 in 10.0 mi Calm Calm - N/A   Clear